Regional Weather Roundup
Issued by NWS

Home | Current Version | Previous Version | Graphics & Text | Print | Product List | Glossary On
Versions: 1 2 3 4 5 6 7 8 9 10 11 12 13 14 15 16 17 18 19 20 21 22 23 24 25 26 27 28 29 30 31 32 33 34 35 36 37 38 39 40 41 42 43 44 45 46 47 48 49 50
000
ASUS45 KBOU 251507
RWRCO

WEATHER ROUNDUP FOR COLORADO
NATIONAL WEATHER SERVICE DENVER/BOULDER CO
900 AM MDT FRI JUL 25 2014

NOTE: "FAIR" INDICATES FEW OR NO CLOUDS BELOW 12000 FEET WITH NO
SIGNIFICANT WEATHER AND/OR OBSTRUCTIONS TO VISIBILITY.

COZ001>005-013-030-031-251600-
...NORTHWEST COLORADO...

CITY           SKY/WX    TMP DP  RH WIND       PRES   REMARKS
CRAIG          MOSUNNY   67  54  63 E14       30.22R
HAYDEN         MOSUNNY   68  50  52 E12       30.25S
MEEKER         MOSUNNY   69  55  60 CALM      30.24S
MOUNT WERNER   NOT AVBL
STEAMBOAT SPGS MOSUNNY   63  53  69 W6        30.28F
WALDEN         MOSUNNY   64  45  48 S12       30.36S
$$

COZ006>008-011-251600-
...WEST CENTRAL VALLEYS...

CITY           SKY/WX    TMP DP  RH WIND       PRES   REMARKS
GRAND JUNCTION MOSUNNY   75  52  44 SE25G31   30.14R
MONTROSE       PTSUNNY   72  51  47 E6        30.27R
EAGLE          PTSUNNY   61  55  82 CALM      30.35S
RIFLE          MOSUNNY   71  51  49 VRB5      30.21S
DELTA          PTSUNNY   72  53  51 E5        30.23S
NUCLA          MOSUNNY   70  52  52 SE5       30.30R
$$

COZ017>023-064>068-251600-
...SOUTHWEST COLORADO...

CITY           SKY/WX    TMP DP  RH WIND       PRES   REMARKS
DURANGO        MOSUNNY   74  50  42 CALM      30.32R
CORTEZ         MOSUNNY   76  52  43 CALM      30.26R
PAGOSA SPRINGS MOSUNNY   70  44  40 CALM      30.41R
TELLURIDE      CLOUDY    59  48  67 CALM      30.50R
WOLF CREEK PAS NOT AVBL
$$

COZ009-010-012-014-032>034-037-058>063-251600-
...CENTRAL COLORADO...

CITY           SKY/WX    TMP DP  RH WIND       PRES   REMARKS
ASPEN          MOSUNNY   62  49  62 S5        30.38F
BUENA VISTA    MOSUNNY   68  45  42 SW3       30.37F
COPPER MTN     MOSUNNY   59  43  55 W6        30.69S
BERTHOUD PASS  FAIR      48  34  57 NW13G18   30.73S
COTTONWOOD PAS MOSUNNY   68  41  37 CALM      30.52S
GUNNISON       SUNNY     61  46  59 CALM      30.45R
KREMMLING      SUNNY     61  45  55 CALM      30.38S
LEADVILLE      MOSUNNY   63  43  48 NW6       30.51S
MONARCH PASS   SUNNY     52  41  66 W16       30.79R
SALIDA         MOSUNNY  N/A N/A N/A CALM      30.42S
SUNLIGHT       MOSUNNY   59  46  63 CALM      30.61R
WILKERSON PASS SUNNY     61  37  41 NW8G16    30.65S
$$

COZ069>075-251600-
...SAN LUIS VALLEY/SANGRE DE CRISTO MOUNTAINS...

CITY           SKY/WX    TMP DP  RH WIND       PRES   REMARKS
ALAMOSA        SUNNY     70  48  45 NE3       30.37R
LA VETA PASS   MOSUNNY   63  43  48 SW12G20   30.54R
SAGUACHE       SUNNY     64  52  63 NW9       30.40S
$$

COZ035-036-038>040-251600-
...NORTHERN COLORADO FRONT RANGE...

CITY           SKY/WX    TMP DP  RH WIND       PRES   REMARKS
DENVER INTL AP PTSUNNY   86  46  24 VRB3      30.12R
DMNS CITY PARK   N/A     80  52  38 S5        30.11R
AURORA         MOSUNNY   79  53  39 SW8       30.15R
FRONT RANGE AP PTSUNNY   84  46  26 N6        30.14R
ERIE MUNI ARPT SUNNY     84  46  25 S5        30.08S
BOULDER MUN AP SUNNY     82  50  32 NE6       30.08S
CENTENNIAL     MOSUNNY   81  45  28 W6        30.16R
BROOMFIELD     PTSUNNY   81  52  36 VRB3      30.13
FORT COLLINS   SUNNY     75  55  50 SE13      30.08S
LONGMONT       SUNNY     81  55  40 E8        30.09R
$$

COZ041-046-047-076>085-087-088-251600-
...PIKES PEAK/PALMER DIVIDE AND SOUTHERN FOOTHILLS...

CITY           SKY/WX    TMP DP  RH WIND       PRES   REMARKS
COLO. SPRINGS  MOSUNNY   83  47  28 N15       30.18R
A. F. ACADEMY  MOSUNNY   77  52  41 N5        30.21S
ELLICOTT       MOSUNNY   84  46  26 N16       30.15S
FALCON         MOSUNNY   81  45  28 N12       30.25R
FORT CARSON    MOSUNNY   82  49  31 NW10      30.15R
LIMON          SUNNY     83  48  29 N14       30.11R
MONUMENT HILL  SUNNY     77  45  31 N6        30.25R
TRINIDAD       SUNNY     82  49  31 W8        30.15S
$$

COZ042>045-048>051-090-091-251600-
...NORTHEAST COLORADO...

CITY           SKY/WX    TMP DP  RH WIND       PRES   REMARKS
GREELEY ARPT   MOSUNNY   73  57  56 SW6       30.06S
AKRON          PTSUNNY   76  51  41 N20       30.05R
BURLINGTON     SUNNY     84  52  33 N14       30.00R
WRAY             N/A     82  54  38 N10       29.98R
STERLING       PTSUNNY   79  63  57 NE7       30.02R
HOLYOKE        MOSUNNY   79  61  53 N20G26    29.98R
FORT MORGAN    PTSUNNY   80  53  37 SE9       30.06R
$$

COZ086-089-092>099-251600-
...SOUTHEAST COLORADO...

CITY           SKY/WX    TMP DP  RH WIND       PRES   REMARKS
PUEBLO         SUNNY     85  49  28 W10       30.05S
LA JUNTA       SUNNY     82  55  39 W13       30.01R
LAMAR          SUNNY     85  52  32 W7        29.96R
SPRINGFIELD      N/A     85  51  31 W10       30.02S
$$



USA.gov is the U.S. government's official web portal to all federal, state and local government web resources and services.